CW5316 Weather Reports


Display with metric or nautical units.
time (UTC)temp
F
wind
direction
speed
MPH
gust
MPH
rain 1hr
in
rain 24hr
in
rain mn
in
humidity
%
barometer
mb
20260509223520 67 64 0.0 2.0 0.00 0.00 0.00 54 1018.3
20260509223044 68 0 0.0 2.0 0.00 0.00 0.00 55 1018.3
20260509222519 68 315 0.0 7.0 0.00 0.00 0.00 54 1018.3
20260509222019 68 113 0.0 7.0 0.00 0.00 0.00 56 1018.4
20260509221541 69 57 1.0 4.0 0.00 0.00 0.00 54 1018.4
20260509221019 69 0 0.0 4.0 0.00 0.00 0.00 54 1018.4
20260509220519 69 0 0.0 2.0 0.00 0.00 0.00 56 1018.5
20260509220043 68 74 0.0 3.0 0.00 0.00 0.00 52 1018.5
20260509215521 68 139 0.0 3.0 0.00 0.00 0.00 54 1018.6
20260509215021 69 226 0.0 3.0 0.00 0.00 0.00 55 1018.7
20260509214535 69 184 0.0 3.0 0.00 0.00 0.00 55 1018.6
20260509214020 67 0 0.0 4.0 0.00 0.00 0.00 55 1018.8
20260509213519 67 0 1.0 4.0 0.00 0.00 0.00 56 1018.7
20260509213035 67 95 1.0 5.0 0.00 0.00 0.00 54 1018.7
20260509212520 67 104 1.0 5.0 0.00 0.00 0.00 55 1018.8
20260509212022 69 175 1.0 4.0 0.00 0.00 0.00 53 1018.9
20260509211540 68 0 0.0 3.0 0.00 0.00 0.00 56 1018.8
20260509211019 68 0 0.0 3.0 0.00 0.00 0.00 55 1018.8
20260509210522 68 0 0.0 3.0 0.00 0.00 0.00 54 1018.7
20260509210040 67 0 0.0 3.0 0.00 0.00 0.00 57 1018.9
20260509205520 66 119 0.0 4.0 0.00 0.00 0.00 56 1018.9
20260509205023 66 0 1.0 4.0 0.00 0.00 0.00 56 1018.9
20260509204538 67 69 1.0 4.0 0.00 0.00 0.00 56 1019.1
20260509204021 65 107 1.0 6.0 0.00 0.00 0.00 56 1019.1
20260509203519 65 0 1.0 6.0 0.00 0.00 0.00 56 1019.2
20260509203034 65 108 1.0 4.0 0.00 0.00 0.00 56 1019.3
20260509202520 67 65 1.0 4.0 0.00 0.00 0.00 56 1019.4
20260509202023 66 106 0.0 4.0 0.00 0.00 0.00 57 1019.4
20260509201535 66 0 1.0 4.0 0.00 0.00 0.00 56 1019.5
20260509201022 65 0 0.0 4.0 0.00 0.00 0.00 58 1019.6
20260509200525 65 0 1.0 4.0 0.00 0.00 0.00 56 1019.8
20260509200052 66 311 1.0 8.0 0.00 0.00 0.00 57 1020.0
20260509195530 64 0 0.0 8.0 0.00 0.00 0.00 58 1020.0
20260509195019 65 105 2.0 8.0 0.00 0.00 0.00 57 1020.0
20260509194539 65 0 0.0 4.0 0.00 0.00 0.00 59 1020.0
20260509194020 64 111 1.0 5.0 0.00 0.00 0.00 58 1020.0
20260509193520 63 0 1.0 5.0 0.00 0.00 0.00 60 1020.0
20260509193051 64 0 0.0 5.0 0.00 0.00 0.00 59 1020.1
20260509192519 64 311 1.0 5.0 0.00 0.00 0.00 60 1020.1
20260509192023 64 95 0.0 4.0 0.00 0.00 0.00 61 1020.2
20260509191535 63 300 0.0 4.0 0.00 0.00 0.00 61 1020.2
20260509191021 63 0 1.0 5.0 0.00 0.00 0.00 61 1020.3
20260509190519 63 0 2.0 6.0 0.00 0.00 0.00 61 1020.3
20260509190043 61 65 1.0 6.0 0.00 0.00 0.00 61 1020.3
20260509185521 62 84 0.0 6.0 0.00 0.00 0.00 59 1020.3
20260509185025 62 234 2.0 6.0 0.00 0.00 0.00 62 1020.4
20260509184550 61 90 1.0 4.0 0.00 0.00 0.00 61 1020.6
20260509184020 61 84 1.0 7.0 0.00 0.00 0.00 63 1020.5
20260509183520 61 291 2.0 7.0 0.00 0.00 0.00 64 1020.6
20260509183041 61 0 0.0 4.0 0.00 0.00 0.00 63 1020.5
20260509182521 61 73 1.0 6.0 0.00 0.00 0.00 61 1020.6
20260509182019 61 0 1.0 6.0 0.00 0.00 0.00 64 1020.8
20260509181545 60 0 0.0 4.0 0.00 0.00 0.00 63 1020.6
20260509181024 61 307 0.0 4.0 0.00 0.00 0.00 64 1020.6
20260509180520 60 0 0.0 3.0 0.00 0.00 0.00 64 1020.7
20260509180039 60 0 1.0 3.0 0.00 0.00 0.00 65 1020.7
20260509175521 58 98 1.0 4.0 0.00 0.00 0.00 65 1020.7
20260509175022 59 63 1.0 6.0 0.00 0.00 0.00 66 1020.7
20260509174535 59 109 2.0 6.0 0.00 0.00 0.00 65 1020.8
20260509174023 59 110 1.0 4.0 0.00 0.00 0.00 66 1020.7
20260509173521 58 110 1.0 4.0 0.00 0.00 0.00 65 1020.7
20260509173049 58 256 0.0 4.0 0.00 0.00 0.00 66 1020.7
20260509172520 58 92 1.0 4.0 0.00 0.00 0.00 65 1020.7
20260509172021 58 0 1.0 4.0 0.00 0.00 0.00 65 1020.6
20260509171545 58 0 0.0 3.0 0.00 0.00 0.00 68 1020.8
20260509171019 57 0 0.0 4.0 0.00 0.00 0.00 67 1020.8
20260509170521 57 0 0.0 4.0 0.00 0.00 0.00 67 1020.8
20260509170041 57 83 1.0 4.0 0.00 0.00 0.00 67 1020.9
20260509165519 56 0 0.0 3.0 0.00 0.00 0.00 68 1021.0
20260509165019 56 101 0.0 4.0 0.00 0.00 0.00 70 1021.0
20260509164537 56 104 1.0 4.0 0.00 0.00 0.00 69 1021.1
20260509164020 56 0 1.0 4.0 0.00 0.00 0.00 69 1021.1
20260509163519 56 0 0.0 3.0 0.00 0.00 0.00 71 1021.2
20260509163045 55 0 1.0 3.0 0.00 0.00 0.00 71 1021.3
20260509162522 55 0 0.0 3.0 0.00 0.00 0.00 72 1021.4
20260509162020 55 0 0.0 3.0 0.00 0.00 0.00 73 1021.5
20260509161541 55 85 0.0 3.0 0.00 0.00 0.00 73 1021.6
20260509161021 54 0 0.0 3.0 0.00 0.00 0.00 74 1021.8
20260509160520 54 0 0.0 3.0 0.00 0.00 0.00 76 1021.9
20260509160039 54 0 0.0 3.0 0.00 0.00 0.00 75 1021.8
20260509155520 53 0 0.0 4.0 0.00 0.00 0.00 76 1021.8
20260509155018 53 139 1.0 4.0 0.00 0.00 0.00 76 1021.8
20260509154543 53 0 0.0 3.0 0.00 0.00 0.00 77 1021.8
20260509154020 52 103 0.0 1.0 0.00 0.00 0.00 79 1021.8
20260509153519 52 0 0.0 1.0 0.00 0.00 0.00 79 1021.8
20260509153038 52 0 0.0 3.0 0.00 0.00 0.00 80 1021.8
20260509152519 52 0 0.0 3.0 0.00 0.00 0.00 79 1021.9
20260509152022 51 121 0.0 3.0 0.00 0.00 0.00 80 1021.8
20260509151535 50 117 0.0 2.0 0.00 0.00 0.00 81 1021.9
20260509151021 50 0 0.0 2.0 0.00 0.00 0.00 83 1021.9
20260509150521 49 0 0.0 2.0 0.00 0.00 0.00 87 1022.1
20260509145521 49 0 0.0 0.0 0.00 0.00 0.00 88 1022.2
20260509145021 48 0 0.0 0.0 0.00 0.00 0.00 89 1022.3
20260509144622 48 0 0.0 0.0 0.00 0.00 0.00 89 1022.3
20260509144019 47 0 0.0 0.0 0.00 0.00 0.00 90 1022.1
20260509143524 47 0 0.0 0.0 0.00 0.00 0.00 91 1022.3
20260509143046 46 0 0.0 0.0 0.00 0.00 0.00 91 1022.4
20260509142521 46 0 0.0 0.0 0.00 0.00 0.00 92 1022.4
20260509142019 46 0 0.0 0.0 0.00 0.00 0.00 91 1022.5
20260509141542 46 0 0.0 0.0 0.00 0.00 0.00 91 1022.5
20260509141022 45 0 0.0 0.0 0.00 0.00 0.00 92 1022.6
20260509140519 45 0 0.0 0.0 0.00 0.00 0.00 92 1022.6
20260509140043 45 0 0.0 0.0 0.00 0.00 0.00 92 1022.7
20260509135520 45 0 0.0 0.0 0.00 0.00 0.00 92 1022.7
20260509135019 45 0 0.0 0.0 0.00 0.00 0.00 92 1022.7
20260509134543 44 0 0.0 0.0 0.00 0.00 0.00 92 1022.7
20260509134020 45 0 0.0 0.0 0.00 0.00 0.00 91 1022.8
20260509133523 45 0 0.0 0.0 0.00 0.00 0.00 91 1022.7
20260509133041 45 0 0.0 0.0 0.00 0.00 0.00 91 1022.6
20260509132520 45 0 0.0 0.0 0.00 0.00 0.00 92 1022.4
20260509132022 45 0 0.0 0.0 0.00 0.00 0.00 92 1022.4
20260509131542 44 0 0.0 0.0 0.00 0.00 0.00 92 1022.3
20260509131020 45 0 0.0 0.0 0.00 0.00 0.00 91 1022.3
20260509130520 45 0 0.0 0.0 0.00 0.00 0.00 91 1022.3
20260509130038 45 0 0.0 0.0 0.00 0.00 0.00 91 1022.2
20260509125521 46 0 0.0 0.0 0.00 0.00 0.00 90 1022.2
20260509125021 46 0 0.0 0.0 0.00 0.00 0.00 91 1022.1
20260509124552 46 0 0.0 0.0 0.00 0.00 0.00 90 1022.1
20260509124019 46 0 0.0 0.0 0.00 0.00 0.00 90 1022.2
20260509123521 47 0 0.0 0.0 0.00 0.00 0.00 89 1022.3
20260509123035 47 0 0.0 0.0 0.00 0.00 0.00 90 1022.2
20260509122521 47 0 0.0 0.0 0.00 0.00 0.00 89 1022.2
20260509122024 47 0 0.0 0.0 0.00 0.00 0.00 90 1022.3
20260509121545 47 0 0.0 0.0 0.00 0.00 0.00 90 1022.1
20260509121021 47 0 0.0 0.0 0.00 0.00 0.00 89 1022.3
20260509120520 47 0 0.0 0.0 0.00 0.00 0.00 88 1022.3
20260509120040 48 0 0.0 0.0 0.00 0.00 0.00 88 1022.2
20260509115520 48 0 0.0 0.0 0.00 0.00 0.00 89 1022.1
20260509115021 48 0 0.0 0.0 0.00 0.00 0.00 89 1022.3
20260509114535 48 0 0.0 0.0 0.00 0.00 0.00 89 1022.2
20260509114020 48 0 0.0 0.0 0.00 0.00 0.00 89 1022.3
20260509113524 48 0 0.0 0.0 0.00 0.00 0.00 89 1022.3
20260509113036 48 0 0.0 0.0 0.00 0.00 0.00 89 1022.3
20260509112521 48 0 0.0 0.0 0.00 0.00 0.00 89 1022.3
20260509112020 48 0 0.0 0.0 0.00 0.00 0.00 89 1022.5
20260509111535 49 0 0.0 0.0 0.00 0.00 0.00 89 1022.5
20260509111025 49 0 0.0 0.0 0.00 0.00 0.00 89 1022.6
20260509110521 49 0 0.0 0.0 0.00 0.00 0.00 89 1022.5
20260509110041 48 0 0.0 0.0 0.00 0.00 0.00 89 1022.5
20260509105520 49 0 0.0 0.0 0.00 0.00 0.00 89 1022.6
20260509105020 49 0 0.0 0.0 0.00 0.00 0.00 88 1022.6
20260509104539 49 0 0.0 0.0 0.00 0.00 0.00 88 1022.7
20260509104020 49 0 0.0 1.0 0.00 0.00 0.00 88 1022.7
20260509103519 49 0 0.0 1.0 0.00 0.00 0.00 88 1022.8
20260509103044 49 0 0.0 1.0 0.00 0.00 0.00 88 1022.8
20260509102523 49 0 0.0 0.0 0.00 0.00 0.00 88 1022.8
20260509102020 49 0 0.0 0.0 0.00 0.00 0.00 88 1022.9
20260509101535 49 0 0.0 0.0 0.00 0.00 0.00 88 1022.9
20260509101019 49 0 0.0 0.0 0.00 0.00 0.00 88 1023.0
20260509100521 49 0 0.0 0.0 0.00 0.00 0.00 88 1023.0
20260509100055 49 0 0.0 0.0 0.00 0.00 0.00 88 1023.1
20260509095525 49 0 0.0 1.0 0.00 0.00 0.00 88 1023.1
20260509095020 49 0 0.0 1.0 0.00 0.00 0.00 88 1023.2
20260509094540 49 0 0.0 0.0 0.00 0.00 0.00 88 1023.1
20260509094020 49 0 0.0 0.0 0.00 0.00 0.00 88 1023.2
20260509093520 49 0 0.0 0.0 0.00 0.00 0.00 88 1023.1
20260509093039 49 0 0.0 0.0 0.00 0.00 0.00 88 1023.2
20260509092523 49 0 0.0 0.0 0.00 0.00 0.00 88 1023.2
20260509092020 49 0 0.0 0.0 0.00 0.00 0.00 88 1023.2
20260509091535 49 0 0.0 0.0 0.00 0.00 0.00 87 1023.2
20260509091021 49 0 0.0 0.0 0.00 0.00 0.00 88 1023.2
20260509090522 48 0 0.0 0.0 0.00 0.00 0.00 88 1023.1
20260509090035 48 0 0.0 1.0 0.00 0.00 0.00 87 1023.2
20260509085521 49 0 0.0 1.0 0.00 0.00 0.00 87 1023.2
20260509085024 49 104 0.0 0.0 0.00 0.00 0.00 87 1023.2
20260509084541 49 0 0.0 1.0 0.00 0.00 0.00 87 1023.3
20260509084022 49 0 0.0 3.0 0.00 0.00 0.00 86 1023.3
20260509083520 49 0 0.0 3.0 0.00 0.00 0.00 86 1023.3
20260509083044 49 0 0.0 0.0 0.00 0.00 0.00 86 1023.3
20260509082525 49 0 0.0 0.0 0.00 0.00 0.00 87 1023.4
20260509082021 48 0 0.0 0.0 0.00 0.00 0.00 87 1023.3
20260509081545 48 0 0.0 0.0 0.00 0.00 0.00 88 1023.4
20260509081021 48 0 0.0 0.0 0.00 0.00 0.00 88 1023.3
20260509080521 48 0 0.0 0.0 0.00 0.00 0.00 87 1023.2
20260509080040 48 0 0.0 0.0 0.00 0.00 0.00 88 1023.3
20260509075522 48 0 0.0 0.0 0.00 0.00 0.00 87 1023.3
20260509075021 48 0 0.0 0.0 0.00 0.00 0.00 87 1023.4
20260509074537 49 0 0.0 0.0 0.00 0.00 0.00 86 1023.2
20260509074021 49 0 0.0 0.0 0.00 0.00 0.00 86 1023.2
20260509073521 49 0 0.0 2.0 0.00 0.00 0.00 85 1023.2
20260509073042 49 0 0.0 3.0 0.00 0.00 0.00 85 1023.2
20260509072526 50 103 1.0 3.0 0.00 0.00 0.00 85 1023.1
20260509072021 50 104 1.0 2.0 0.00 0.00 0.00 84 1023.2
20260509071544 50 104 0.0 2.0 0.00 0.00 0.00 84 1023.1
20260509071021 50 0 0.0 2.0 0.00 0.00 0.00 83 1023.1
20260509070520 50 0 0.0 3.0 0.00 0.00 0.00 83 1023.0
20260509070041 50 104 1.0 3.0 0.00 0.00 0.00 83 1023.0
20260509065525 50 0 1.0 3.0 0.00 0.00 0.00 83 1023.0
20260509065019 51 104 1.0 3.0 0.00 0.00 0.00 82 1023.0
20260509064535 51 104 0.0 2.0 0.00 0.00 0.00 82 1023.1
20260509064026 51 104 0.0 4.0 0.00 0.00 0.00 82 1023.0
20260509063519 51 0 0.0 4.0 0.00 0.00 0.00 82 1023.0
20260509063038 51 105 1.0 4.0 0.00 0.00 0.00 81 1023.0
20260509062519 51 103 0.0 3.0 0.00 0.00 0.00 80 1022.9
20260509062020 51 0 0.0 3.0 0.00 0.00 0.00 80 1022.9
20260509061547 51 0 0.0 3.0 0.00 0.00 0.00 80 1022.9
20260509061021 51 133 0.0 2.0 0.00 0.00 0.00 80 1022.8
20260509060521 51 0 0.0 4.0 0.00 0.00 0.00 79 1022.7
20260509060043 51 107 0.0 4.0 0.00 0.00 0.00 79 1022.7
20260509055521 51 0 0.0 3.0 0.00 0.00 0.00 79 1022.8
20260509055026 51 0 0.0 3.0 0.00 0.00 0.00 79 1022.8
20260509054548 51 0 0.0 3.0 0.00 0.00 0.00 79 1022.8
20260509054020 52 0 0.0 3.0 0.00 0.00 0.00 78 1022.7
20260509053521 51 90 1.0 3.0 0.00 0.00 0.00 79 1022.7
20260509053044 52 127 0.0 2.0 0.00 0.00 0.00 79 1022.7
20260509052520 51 128 0.0 2.0 0.00 0.00 0.00 80 1022.7
20260509052021 51 0 0.0 2.0 0.00 0.00 0.00 79 1022.7
20260509051545 51 102 0.0 3.0 0.00 0.00 0.00 80 1022.8
20260509051022 52 0 0.0 3.0 0.00 0.00 0.00 79 1022.7
20260509050522 51 117 0.0 3.0 0.00 0.00 0.00 79 1022.7
20260509050055 51 0 0.0 2.0 0.00 0.00 0.00 80 1022.8
20260509045522 51 126 0.0 1.0 0.00 0.00 0.00 81 1022.8
20260509045021 51 0 0.0 0.0 0.00 0.00 0.00 82 1022.7
20260509044546 51 0 0.0 0.0 0.00 0.00 0.00 82 1022.6
20260509044020 51 0 0.0 0.0 0.00 0.00 0.00 82 1022.6
20260509043522 51 0 0.0 0.0 0.00 0.00 0.00 81 1022.5
20260509043039 51 0 0.0 0.0 0.00 0.00 0.00 81 1022.5
20260509042526 51 0 0.0 1.0 0.00 0.00 0.00 81 1022.5
20260509042022 51 0 0.0 1.0 0.00 0.00 0.00 82 1022.4
20260509041538 51 0 0.0 0.0 0.00 0.00 0.00 82 1022.4
20260509041019 51 0 0.0 0.0 0.00 0.00 0.00 81 1022.3
20260509040521 51 0 0.0 0.0 0.00 0.00 0.00 80 1022.3
20260509040054 51 0 0.0 0.0 0.00 0.00 0.00 81 1022.2
20260509035524 52 0 0.0 1.0 0.00 0.00 0.00 80 1022.1
20260509035023 52 0 0.0 1.0 0.00 0.00 0.00 80 1022.1
20260509034540 52 0 0.0 1.0 0.00 0.00 0.00 80 1022.0
20260509034022 52 0 0.0 0.0 0.00 0.00 0.00 79 1022.0
20260509033522 52 0 0.0 0.0 0.00 0.00 0.00 80 1021.9
20260509033040 52 0 0.0 0.0 0.00 0.00 0.00 80 1021.9
20260509032522 52 0 0.0 0.0 0.00 0.00 0.00 79 1021.9
20260509032019 52 0 0.0 0.0 0.00 0.00 0.00 79 1021.8
20260509031547 52 0 0.0 1.0 0.00 0.00 0.00 79 1021.9
20260509031020 52 0 0.0 1.0 0.00 0.00 0.00 78 1021.8
20260509030524 52 0 0.0 1.0 0.00 0.00 0.00 78 1021.7
20260509030035 53 0 0.0 1.0 0.00 0.00 0.00 77 1021.7
20260509025521 53 0 0.0 1.0 0.00 0.00 0.00 77 1021.7
20260509025020 53 0 0.0 1.0 0.00 0.00 0.00 76 1021.8
20260509024533 53 0 0.0 1.0 0.00 0.00 0.00 77 1021.7
20260509024022 53 0 0.0 2.0 0.00 0.00 0.00 76 1021.8
20260509023521 53 0 0.0 2.0 0.00 0.00 0.00 76 1021.7
20260509023053 53 0 0.0 2.0 0.00 0.00 0.00 75 1021.6
20260509022522 53 0 0.0 2.0 0.00 0.00 0.00 76 1021.5
20260509022023 53 0 0.0 0.0 0.00 0.00 0.00 76 1021.7
20260509021539 53 0 0.0 0.0 0.00 0.00 0.00 75 1021.6
20260509021022 54 0 0.0 0.0 0.00 0.00 0.00 75 1021.5
20260509020520 54 0 0.0 1.0 0.00 0.00 0.00 74 1021.5
20260509020046 54 0 0.0 1.0 0.00 0.00 0.00 73 1021.5
20260509015521 54 0 0.0 2.0 0.00 0.00 0.00 72 1021.4
20260509015021 54 0 0.0 2.0 0.00 0.00 0.00 71 1021.5
20260509014543 54 209 0.0 2.0 0.00 0.00 0.00 71 1021.4
20260509014021 55 0 0.0 2.0 0.00 0.00 0.00 71 1021.5
20260509013520 55 0 0.0 2.0 0.00 0.00 0.00 70 1021.6
20260509013103 56 233 0.0 2.0 0.00 0.00 0.00 69 1021.6
20260509012521 57 246 1.0 3.0 0.00 0.00 0.00 66 1021.5
20260509012022 57 0 0.0 3.0 0.00 0.00 0.00 64 1021.6
20260509011540 57 0 0.0 3.0 0.00 0.00 0.00 66 1021.6
20260509011022 57 0 1.0 3.0 0.00 0.00 0.00 60 1021.5
20260509010522 57 0 0.0 2.0 0.00 0.00 0.00 59 1021.5
20260509010038 57 196 0.0 3.0 0.00 0.00 0.00 61 1021.5
20260509005520 58 0 0.0 3.0 0.00 0.00 0.00 63 1021.6
20260509005020 58 0 0.0 3.0 0.00 0.00 0.00 60 1021.6
20260509004536 57 0 0.0 2.0 0.00 0.00 0.00 59 1021.6
20260509004019 57 0 0.0 2.0 0.00 0.00 0.00 58 1021.6
20260509003521 58 194 0.0 2.0 0.00 0.00 0.00 59 1021.6
20260509003035 57 261 0.0 4.0 0.00 0.00 0.00 59 1021.7
20260509002521 58 0 0.0 4.0 0.00 0.00 0.00 58 1021.6
20260509002020 58 0 1.0 3.0 0.00 0.00 0.00 59 1021.6
20260509001533 58 105 0.0 3.0 0.00 0.00 0.00 59 1021.6
20260509001019 58 255 0.0 3.0 0.00 0.00 0.00 57 1021.5
20260509000522 58 236 0.0 4.0 0.00 0.00 0.00 60 1021.5
20260509000041 58 58 0.0 4.0 0.00 0.00 0.00 60 1021.4
20260508235521 59 0 1.0 3.0 0.00 0.00 0.00 58 1021.5
20260508235021 58 0 0.0 4.0 0.00 0.00 0.00 60 1021.5
20260508234539 58 0 0.0 4.0 0.00 0.00 0.00 59 1021.4
20260508234020 57 257 0.0 4.0 0.00 0.00 0.00 61 1021.5
20260508233524 57 117 0.0 4.0 0.00 0.00 0.00 59 1021.5
20260508233035 57 0 1.0 6.0 0.00 0.00 0.00 57 1021.5
20260508232520 58 111 1.0 6.0 0.00 0.00 0.00 56 1021.5
20260508232020 59 73 1.0 7.0 0.00 0.00 0.00 57 1021.5
20260508231550 59 111 2.0 9.0 0.00 0.00 0.00 60 1021.6
20260508231021 58 113 3.0 9.0 0.00 0.00 0.00 60 1021.5
20260508230520 58 118 4.0 9.0 0.00 0.00 0.00 60 1021.6
20260508230051 57 113 1.0 4.0 0.00 0.00 0.00 60 1021.5
20260508225519 57 0 1.0 6.0 0.00 0.00 0.00 63 1021.5
20260508225020 57 115 1.0 6.0 0.00 0.00 0.00 61 1021.5
20260508224555 57 200 0.0 2.0 0.00 0.00 0.00 64 1021.5
20260508224021 58 105 0.0 5.0 0.00 0.00 0.00 63 1021.4